OV1-4

导读

OV1-4是美国于1966年3月30日发射的OV1系列卫星,编号1966 025A,卫星质量87.5公斤。作为该系列成功入轨的卫星之一,它主要开展航天热控实验,测试不同材料在太空环境中的热控表现,同时还完成了零重力环境下的生物学实验,研究黑暗环境中光电池对生物体细胞的测量,为早期航天技术发展积累了宝贵数据。

基本信息
目录编号:
2121
目录名称:
OV1-4
国际标识:
1966-025A
轨道中心:
EARTH
卫星名称:
OV1-4
卫星全名:
--
卫星状态:
在轨 (已飞行22021 天)
发射日期:
1966-03-30 UTC
国别 :
美国 (US)
星等 :
--
轨道信息
数据来源 国际轨道数据 AOE轨道数据
星历时间 2026-07-13T18:12:28+0800
21小时前
查看轨道信息
2026-07-12T09:00:00+0800
2天前
查看轨道信息
半长轴 7316.145km 7316.15km
偏心率 0.0083438 0.0083215
轨道倾角 144.502° 144.503°
近地点辐角 193.277° 183.464°
升交点赤经 135.605° 128.649°
平近点角 166.570° 95.975°
近地点 876.963km 877.131km
远地点 999.053km 998.895km
周期 103.797分钟 103.797分钟
每日圈数 13.873285 13.873273
详细信息
使用方式:
暂无
2D轨道图
3D轨道图
轨道高度分析图
轨道倾角分析图
轨道综合分析图
查看轨道综合分析图